TimeHST,TemperatureF,Dew PointF,Humidity,Sea Level PressureIn,VisibilityMPH,Wind Direction,Wind SpeedMPH,Gust SpeedMPH,PrecipitationIn,Events,Conditions,WindDirDegrees,DateUTC
12:53 AM,68.0,64.0,87,30.10,10.0,SW,3.5,-,0.00,,Scattered Clouds,230,2012-11-13 10:53:00
1:53 AM,66.9,63.0,87,30.09,10.0,West,3.5,-,0.03,,Scattered Clouds,280,2012-11-13 11:53:00
2:53 AM,66.0,62.1,87,30.07,10.0,SW,4.6,-,N/A,,Scattered Clouds,230,2012-11-13 12:53:00
3:53 AM,66.0,62.1,87,30.06,10.0,SW,3.5,-,N/A,,Scattered Clouds,220,2012-11-13 13:53:00
4:53 AM,66.0,63.0,90,30.07,10.0,WSW,3.5,-,0.01,,Scattered Clouds,240,2012-11-13 14:53:00
5:53 AM,64.9,61.0,87,30.08,10.0,SW,3.5,-,N/A,,Scattered Clouds,230,2012-11-13 15:53:00
6:53 AM,64.9,61.0,87,30.10,10.0,WSW,3.5,-,N/A,,Scattered Clouds,240,2012-11-13 16:53:00
7:53 AM,70.0,63.0,78,30.11,10.0,SW,4.6,-,N/A,,Scattered Clouds,230,2012-11-13 17:53:00
8:53 AM,77.0,66.0,69,30.12,10.0,North,5.8,-,0.00,,Partly Cloudy,350,2012-11-13 18:53:00
9:53 AM,79.0,64.0,60,30.12,10.0,North,3.5,-,N/A,,Scattered Clouds,350,2012-11-13 19:53:00
10:53 AM,77.0,63.0,62,30.11,10.0,North,6.9,-,0.00,,Scattered Clouds,360,2012-11-13 20:53:00
11:53 AM,80.1,64.9,60,30.09,10.0,North,8.1,-,N/A,,Scattered Clouds,10,2012-11-13 21:53:00
12:53 PM,80.1,64.9,60,30.06,10.0,NE,8.1,-,N/A,,Mostly Cloudy,40,2012-11-13 22:53:00
1:53 PM,78.1,66.9,68,30.04,10.0,North,10.4,-,N/A,,Mostly Cloudy,10,2012-11-13 23:53:00
2:53 PM,77.0,64.9,66,30.05,10.0,North,8.1,-,N/A,,Scattered Clouds,360,2012-11-14 00:53:00
3:53 PM,77.0,66.0,69,30.04,10.0,North,9.2,-,N/A,,Partly Cloudy,350,2012-11-14 01:53:00
4:53 PM,77.0,64.9,66,30.06,10.0,North,9.2,-,N/A,,Mostly Cloudy,350,2012-11-14 02:53:00
5:53 PM,75.0,64.9,71,30.08,10.0,North,11.5,-,N/A,,Scattered Clouds,350,2012-11-14 03:53:00
6:20 PM,71.6,66.2,83,30.09,10.0,NNW,4.6,-,0.00,Rain,Rain,340,2012-11-14 04:20:00
6:53 PM,72.0,64.9,78,30.10,10.0,WNW,8.1,-,0.01,,Overcast,300,2012-11-14 04:53:00
7:30 PM,69.8,66.2,88,30.12,10.0,NW,11.5,-,0.02,,Overcast,310,2012-11-14 05:30:00
7:53 PM,69.1,64.9,87,30.13,10.0,West,9.2,-,0.02,,Overcast,280,2012-11-14 05:53:00
8:53 PM,68.0,64.0,87,30.13,10.0,WSW,6.9,-,0.04,,Scattered Clouds,240,2012-11-14 06:53:00
9:53 PM,69.1,64.9,87,30.14,3.0,South,4.6,-,0.02,Rain,Heavy Rain,180,2012-11-14 07:53:00
9:57 PM,69.8,64.4,83,30.14,2.5,SSW,4.6,-,0.04,Rain,Rain,200,2012-11-14 07:57:00
10:04 PM,69.8,66.2,88,30.14,7.0,SW,3.5,-,0.07,Rain,Light Rain,230,2012-11-14 08:04:00
10:36 PM,69.8,64.4,83,30.14,10.0,SW,6.9,-,0.07,Rain,Light Rain,230,2012-11-14 08:36:00
10:53 PM,68.0,64.9,90,30.13,10.0,WSW,6.9,-,0.07,,Overcast,240,2012-11-14 08:53:00
11:24 PM,68.0,64.4,88,30.14,10.0,WSW,4.6,-,0.02,,Mostly Cloudy,250,2012-11-14 09:24:00
11:53 PM,69.1,64.9,87,30.13,10.0,West,4.6,-,0.02,,Mostly Cloudy,260,2012-11-14 09:53:00